Location: Te Maipi
(41.1000°S, 175.9000°E)
Time: 20:04:46
(UTC+00:00)

Daily predictions for brighter satellites

Satellite Brightness Start Highest point End
(mag) Time Altitude Azimuth Time Altitude Azimuth Time Altitude Azimuth
IDEFIX/ARIANE 42P 4.1 12:03:33 25° E 12:04:24 26° ESE 12:08:42 10° S
Cosmos 2184 Rocket 4.3 12:07:27 55° E 12:07:30 55° E 12:13:34 10° SSE
Cosmos 2150 Rocket 4.4 12:06:55 10° SSW 12:11:06 58° SSW 12:11:06 58° SSW
GP-B 4.2 12:09:04 10° S 12:12:06 42° SSW 12:12:06 42° SSW
Meteor 2-9 Rocket 4.4 12:14:11 63° SW 12:14:11 63° SW 12:19:00 10° S
SeaSat 1 3.1 12:19:38 50° SW 12:19:38 50° SW 12:23:22 10° SSW
Cosmos 2297 Rocket 2.5 12:20:40 57° ESE 12:20:40 57° ESE 12:25:37 10° SSE
Cosmos 2322 3.8 12:16:20 10° SSW 12:21:30 70° SW 12:21:30 70° SW
COSMOS 2428 2.7 12:18:28 10° SSW 12:23:46 76° SSW 12:23:46 76° SSW
USA 267 3.1 12:29:53 75° N 12:30:17 79° NW 12:36:56 10° SW
ALOS 2 3.6 12:28:19 10° SSE 12:31:30 44° SE 12:31:30 44° SE
Cosmos 2237 Rocket 2.9 12:29:01 10° SSW 12:34:35 48° ESE 12:35:36 43° E
CZ-2C R/B 4.3 12:42:50 31° WSW 12:42:50 31° WSW 12:46:51 10° SSW
USA 59 Rocket 3.3 12:37:56 10° WSW 12:42:00 14° W 12:42:13 14° W
Cosmos 44 4.3 12:44:04 41° ESE 12:44:04 41° ESE 12:47:38 10° SE
Meteor 1-21 4.2 12:43:53 10° S 12:49:40 82° E 12:49:42 82° E
ADEOS II 4.5 12:49:04 10° E 12:52:24 17° ESE 12:55:44 10° SSE
ATLAS 2AS CENTAUR R/B 3.6 12:50:47 31° W 12:53:40 44° SW 13:00:36 10° SSE
Cosmos 2154 Rocket 3.9 12:53:52 71° WNW 12:54:16 73° W 13:00:37 10° S
MetOp-A 4.5 12:54:16 10° S 12:57:29 45° SSW 12:57:29 45° SSW
Cosmos 1408 Rocket 4.2 13:06:20 54° SSE 13:06:20 54° SSE 13:09:49 10° S
CZ-2C R/B 3.9 13:01:04 10° SE 13:05:39 29° E 13:06:17 28° ENE
Cosmos 2227 Rocket 2.2 13:08:24 67° ENE 13:08:27 67° ENE 13:14:09 10° SSE
USA 229 DEB 3.4 13:02:38 10° SSW 13:09:06 79° SE 13:10:18 58° NE
USA 229 3.4 13:02:54 10° SSW 13:09:21 79° SE 13:10:35 58° NE
Cosmos 1743 Rocket 4.5 13:09:52 44° ESE 13:09:52 44° ESE 13:13:42 10° SSE
Okean 3 Rocket 4.4 13:11:58 45° SSW 13:11:58 45° SSW 13:15:23 10° S
FENGYUN 3A 3.7 13:14:24 68° ENE 13:14:59 75° ESE 13:20:28 10° S
ARIANE 5 R/B 4.2 13:11:27 10° S 13:14:52 28° WSW 13:14:52 28° WSW
CZ-2C R/B 4.2 13:17:28 41° W 13:17:43 41° W 13:21:31 10° SSW
Sich 1 3.9 13:22:25 42° SW 13:22:25 42° SW 13:25:37 10° S
ATLAS 3B R/B 2.4 13:19:36 10° SW 13:25:55 84° WNW 13:27:33 54° NNE
NPP 3.6 13:26:26 72° WNW 13:26:26 72° WNW 13:31:54 10° SSW
BREEZE-M DEB (TANK) 3.0 13:31:58 64° NE 13:31:58 64° NE 13:39:19 10° ENE
CZ-2D R/B 2.8 13:29:39 35° ENE 13:31:31 51° ESE 13:36:45 10° S
ALOS 3.6 13:30:43 26° ENE 13:32:25 34° ESE 13:36:35 10° S
Meteor 2-10 Rocket 3.4 13:32:15 77° NNE 13:32:34 81° E 13:37:58 10° SSE
MSX 4.0 13:32:38 53° W 13:32:38 53° W 13:38:20 10° SSW
H-2A R/B 4.3 13:29:12 10° ENE 13:32:59 21° ESE 13:36:50 10° SSE
Resurs 1-4 Rocket 2.6 13:31:38 41° NE 13:33:14 58° ESE 13:38:30 10° S
Cosmos 2263 Rocket 2.3 13:34:20 56° NE 13:35:04 61° ENE 13:40:43 10° SSE
SL-16 R/B 3.1 13:34:53 10° SSW 13:40:23 46° ESE 13:45:09 14° NE
Cosmos 2341 Rocket 4.0 13:38:59 57° N 13:40:28 89° E 13:46:58 10° S
IDEFIX/ARIANE 42P 3.3 13:44:14 38° W 13:44:14 38° W 13:48:34 10° SSW
Cosmos 1805 Rocket 4.3 13:47:08 42° WSW 13:47:08 42° WSW 13:50:58 10° S
ARIANE 6 FM1 Upper Stage 3.8 13:47:20 37° ENE 13:47:20 37° ENE 13:51:15 10° SE
Cosmos 2219 3.6 13:47:20 46° NNE 13:48:35 55° ENE 13:54:13 10° SSE
H-2A R/B 3.1 13:47:34 32° ENE 13:48:49 40° ESE 13:52:45 10° S
GEOS 3 Rocket 4.4 13:45:35 10° SE 13:50:16 37° ENE 13:50:57 35° NE
Cosmos 1680 Rocket 3.5 13:51:48 62° NNE 13:52:36 75° ENE 13:57:57 10° SSE
Cosmos 1420 Rocket 3.9 13:54:55 10° SSW 14:00:11 86° ESE 14:01:45 47° NNE
Cosmos 2297 Rocket 3.9 14:02:26 18° W 14:04:28 21° SW 14:08:46 10° S
Cosmos 1727 Rocket 4.4 14:02:41 10° S 14:08:53 59° E 14:13:22 19° NNE
Okean 1-7 3.2 14:07:03 10° S 14:11:15 66° E 14:12:11 49° NE
ACS3 Solar Sail 2.9 14:05:56 10° NE 14:11:48 44° ESE 14:17:41 10° S
Cosmos 1470 Rocket 4.2 14:11:26 39° NE 14:12:35 51° E 14:16:49 10° SSE
Cosmos 1633 Rocket 3.0 14:13:05 65° N 14:13:42 85° E 14:18:09 10° S
Cosmos 1818 4.1 14:08:48 10° SSW 14:14:10 58° SE 14:19:29 10° NE
NOAA 11 4.2 14:13:44 49° NNW 14:14:59 63° W 14:20:27 10° SSW
SL-8 Rocket 4.4 14:15:28 38° WNW 14:17:11 47° WSW 14:23:18 10° S
Cosmos 2237 Rocket 3.5 14:13:44 10° SW 14:17:22 24° W 14:17:22 24° W
CZ-4C R/B 3.8 14:13:27 25° N 14:18:28 47° ENE 14:25:52 10° SE
Cosmos 724 4.2 14:17:54 46° NNW 14:19:43 88° SW 14:25:33 10° SSE
SL-4 R/B 4.2 14:18:13 10° SW 14:21:34 24° SSE 14:24:49 10° ESE
Cosmos 1862 Rocket 3.4 14:18:54 10° SSW 14:23:19 70° W 14:23:56 60° NNW
Envisat 2.9 14:22:00 45° N 14:23:32 70° WNW 14:28:40 10° SSW
Cosmos 1821 Rocket 4.0 14:21:35 39° NNW 14:24:07 73° W 14:30:32 10° S
ADEOS Rocket 3.7 14:17:07 10° NNE 14:24:48 73° ESE 14:32:02 10° S
ADEOS II 2.0 14:29:25 38° N 14:31:22 66° WNW 14:36:40 10° SSW
Cosmos 2228 Rocket 3.0 14:27:36 10° SSW 14:32:03 74° W 14:33:13 48° NNW
Meteor 2-5 Rocket 4.3 14:26:58 10° S 14:32:55 62° ESE 14:38:49 10° NNE
Tiangong -1.8 14:40:34 54° NE 14:40:34 54° NE 14:43:16 10° ENE
Meteor 1-22 Rocket 4.4 14:39:04 33° NNW 14:41:57 72° W 14:47:57 10° S
Cosmos 2112 Rocket 4.5 14:40:14 34° WNW 14:42:03 48° WSW 14:47:16 10° S
Cosmos 1867 4.0 14:40:56 28° N 14:43:34 54° ENE 14:48:51 10° SE
CZ-2C R/B 3.5 14:41:06 10° S 14:45:53 35° WSW 14:47:44 27° WNW
Cosmos 1707 Rocket 4.2 14:45:24 10° SSW 14:49:24 36° W 14:49:58 34° WNW
METEOR-M 4.0 14:45:34 19° N 14:49:31 78° WNW 14:54:57 10° SSW
Cosmos 1607 4.2 14:46:31 30° NW 14:49:50 64° SW 14:56:15 10° SSE
Cosmos 2056 Rocket 3.7 14:47:33 10° SSW 14:52:45 54° WNW 14:55:58 23° N
Cosmos 2227 Rocket 4.0 14:50:11 14° W 14:53:01 20° SW 14:57:11 10° S
ARGOS 3.8 14:53:45 10° NNE 14:59:01 56° ESE 15:04:20 10° S
ATLAS CENTAUR R/B 1.3 14:58:33 35° NNE 14:59:15 42° ENE 15:02:05 10° SE
AQUA 3.7 14:56:55 20° N 15:00:08 68° WNW 15:04:54 10° SSW
Cosmos 1953 2.1 14:59:18 39° NNW 15:00:30 65° W 15:04:14 10° S
Cosmos 1934 Rocket 3.9 15:01:20 17° N 15:06:14 90° E 15:12:24 10° S
Cosmos 2227 4.2 15:04:28 22° NNW 15:08:17 82° ENE 15:13:59 10° SSE
ALOS 3.4 15:08:46 23° WNW 15:09:25 24° W 15:13:09 10° SW
Cosmos 1844 3.9 15:07:14 17° N 15:11:29 66° ENE 15:17:05 10° SSE
CZ-2D R/B 3.4 15:10:54 19° WNW 15:11:47 20° W 15:15:43 10° SW
H-2A R/B 2.2 15:08:17 19° N 15:11:50 51° W 15:17:00 10° SSW
USA 308 4.3 15:14:19 18° N 15:14:19 18° N 15:15:46 10° NNE
Resurs 1-4 Rocket 3.6 15:12:41 17° WNW 15:13:21 18° W 15:16:56 10° SW
MOS 1-B Rocket 4.3 15:07:18 10° NNE 15:14:39 86° ESE 15:21:00 10° SSW
ATLAS 3B R/B 4.2 15:12:43 10° WSW 15:14:42 13° W 15:14:42 13° W
Cosmos 2263 Rocket 3.8 15:15:59 13° W 15:19:25 22° SW 15:23:47 10° S
Meteor 1-16 Rocket 4.1 15:15:25 16° NNW 15:19:54 80° W 15:25:20 10° S
Meteor 1-24 Rocket 4.1 15:15:12 10° SSW 15:21:03 49° W 15:26:24 12° NNW
Cosmos 1844 Rocket 2.7 15:17:12 18° NNW 15:21:34 89° ENE 15:27:19 10° SSE
Cosmos 1110 Rocket 3.9 15:18:50 10° SSW 15:24:05 77° WNW 15:29:20 10° NNE
SL-16 R/B 3.2 15:19:34 10° SW 15:24:10 25° WNW 15:26:53 18° NW
H-2A R/B 3.6 15:23:59 17° W 15:24:18 17° W 15:27:02 10° SW
ARIANE 6 FM1 Upper Stage 4.2 15:23:22 15° W 15:26:15 29° SW 15:30:14 10° SSE
Meteor 1-12 Rocket 4.3 15:22:38 14° NNW 15:27:43 72° W 15:33:31 10° S
GEOS 3 Rocket 4.4 15:23:33 10° SSE 15:28:14 38° SW 15:32:00 15° WNW
Cosmos 1703 Rocket 3.9 15:25:01 10° SSW 15:29:09 43° W 15:32:34 14° NNW
ISS -1.6 15:33:58 10° N 15:36:32 20° NE 15:39:08 10° E
H-2A R/B 3.7 15:33:36 10° NNE 15:37:25 65° ESE 15:41:20 10° S
Cosmos 1939 Rocket 4.0 15:37:18 10° NE 15:40:50 43° ESE 15:44:23 10° S
H-2A R/B 3.0 15:43:13 10° S 15:46:40 35° WSW 15:49:34 13° NW
Cosmos 2084 Rocket 4.2 15:43:12 10° NNW 15:47:11 46° ENE 15:51:13 10° SE
Cosmos 1606 4.5 15:45:19 10° NE 15:47:24 20° E 15:49:30 10° SE
OAO 2 Rocket 4.3 15:43:56 14° NW 15:47:48 33° NNE 15:52:25 10° ENE
ACS3 Solar Sail 2.7 15:49:23 10° NNW 15:54:48 30° W 16:00:15 10° SSW
SL-4 R/B 1.8 15:55:46 10° SW 15:59:44 88° SSE 16:03:30 10° NE
Cosmos 1452 Rocket 3.8 15:56:39 10° SSW 16:01:45 48° WNW 16:06:47 10° N
IRS-1D 4.2 15:57:28 10° NNE 16:02:30 61° ESE 16:07:41 10° S
SL-16 R/B 4.4 15:58:12 10° SE 16:03:35 30° E 16:08:54 10° NNE
Cosmos 1340 Rocket 3.2 16:01:40 10° N 16:05:19 59° E 16:09:03 10° SSE
Cosmos 1605 Rocket 4.3 15:59:24 10° NNW 16:05:36 56° W 16:11:58 10° S
CZ-4C R/B 3.6 15:58:31 10° WNW 16:07:03 50° SW 16:14:09 10° SSE
CZ-2C R/B 2.9 16:02:27 10° NNW 16:07:09 40° W 16:11:47 10° SSW
Cosmos 2292 Rocket 4.3 16:08:28 10° SW 16:10:42 19° W 16:13:03 10° NW
Cosmos 1943 4.0 16:06:16 10° SW 16:11:08 29° WNW 16:15:57 10° NNW
DMSP B5D2-2 4.2 16:08:21 10° SSE 16:13:42 88° ENE 16:19:00 10° NNW
Cosmos 1378 Rocket 3.8 16:10:14 10° S 16:14:40 76° E 16:18:59 10° NNE
